Station CPTR1 - 8452944 - Conimicut Light, RI Image indicating link to RSS feed of recent meteorological observations for station CPTR1


Conditions at CPTR1 as of
(6:18 pm EDT)
2218 GMT on 04/17/2024:
     

Click on the graph icon in the table below to see a time series plot of the last five days of that observation.

5-day plot - Wind Direction Wind Direction (WDIR):SSE ( 150 deg true )
5-day plot - Wind Speed Wind Speed (WSPD): 14.0 kts
5-day plot - Wind Gust Wind Gust (GST): 17.1 kts
5-day plot - Atmospheric Pressure Atmospheric Pressure (PRES):30.14 in
5-day plot - Air Temperature Air Temperature (ATMP): 46.8 °F
5-day plot - Water Temperature Water Temperature (WTMP): 51.1 °F
5-day plot - Wind Chill Wind Chill (CHILL): 40.3 °F
5-day plot - Wind Speed at 10 Meters Wind Speed at 10 meters (WSPD10M): 13.6 kts
5-day plot - Wind Speed at 20 Meters Wind Speed at 20 meters (WSPD20M): 13.6 kts
5-day plot -  Wind Speed, Wind Gust and Atmospheric Pressure Combined plot of Wind Speed, Gust, and Air Pressure
NOS Water Level Observation Network Water Level
Previous observations
TIME
(EDT)
5-day plot - Wind Direction
WDIR
 
5-day plot - Wind Speed
WSPD
kts
5-day plot - Wind Gust
GST
kts
5-day plot - Wave Height
WVHT
ft
5-day plot - Dominant Wave Period
DPD
sec
5-day plot - Average Wave Period
APD
sec
5-day plot - Mean Wave Direction
MWD
 
5-day plot - Atmospheric Pressure
PRES
in
5-day plot - Pressure Tendency
PTDY
in
5-day plot - Air Temperature
ATMP
°F
5-day plot - Water Temperature
WTMP
°F
5-day plot - Dew Point
DEWP
°F
5-day plot - Salinity
SAL
psu
5-day plot - Visibility
VIS
nmi
5-day plot - Tide (above MLLW)
TIDE
ft
2024-04-17 06:12 pmSSE 14.0 15.0----30.14- 46.6 51.1----
2024-04-17 06:06 pmSSE 14.0 15.9----30.14- 46.8 51.1----
2024-04-17 06:00 pmSSE 14.0 15.9----30.14+0.00- 51.1----
2024-04-17 05:54 pmSSE 14.0 15.0----30.14-- 50.9----
2024-04-17 05:48 pmSSE 14.0 15.9----30.14- 46.8 50.9----
2024-04-17 05:42 pmSSE 14.0 15.9----30.14- 46.8 50.9----
2024-04-17 05:36 pmSSE 15.0 17.1----30.14- 46.8 51.1----
2024-04-17 05:30 pmSSE 13.0 15.0----30.13- 46.9 51.1----
2024-04-17 05:24 pmSSE 12.0 15.0----30.14- 46.9 51.3----
2024-04-17 05:18 pmSSE 13.0 15.0----30.14- 46.9 51.3----
2024-04-17 05:12 pmSSE 13.0 15.0----30.13- 47.1 51.3----
2024-04-17 05:06 pmSSE 15.0 17.1----30.13- 46.9 51.3----
2024-04-17 05:00 pm S 14.0 15.9----30.13-0.04 46.8 51.3----
2024-04-17 04:54 pmSSE 15.0 17.1----30.13- 46.9 51.4----
2024-04-17 04:48 pmSSE 15.0 17.1----30.13- 47.1 51.4----
2024-04-17 04:42 pmSSE 15.9 18.1----30.13- 47.1 51.3----
2024-04-17 04:36 pmSSE 17.1 19.0----30.13- 46.9 51.3----
2024-04-17 04:30 pmSSE 17.1 18.1----30.13- 46.9 51.3----
2024-04-17 04:24 pmSSE 17.1 18.1----30.13- 46.9 50.9----
2024-04-17 04:18 pmSSE 17.1 19.0----30.13- 46.9 51.1----
2024-04-17 04:12 pmSSE 15.9 18.1----30.13- 46.9 50.7----
2024-04-17 04:06 pmSSE 17.1 18.1----30.13- 47.1 50.5----
2024-04-17 04:00 pmSSE 15.9 18.1----30.13-0.05 47.3 50.5----
2024-04-17 03:54 pm S 18.1 19.0----30.13- 47.1 50.5----
2024-04-17 03:48 pm S 18.1 19.0----30.14- 47.1 50.5----
2024-04-17 03:42 pm S 18.1 19.0----30.14- 47.3 50.2----
2024-04-17 03:36 pm S 17.1 19.0----30.14- 47.5 49.3----
2024-04-17 03:30 pm S 17.1 18.1----30.14- 47.7 48.7----
2024-04-17 03:24 pm S 17.1 18.1----30.14- 47.7 48.4----
2024-04-17 03:18 pm S 15.9 17.1----30.14- 48.2 48.4----
2024-04-17 03:12 pmSSE 15.0 17.1----30.14- 48.4 48.2----
2024-04-17 03:06 pmSSE 15.9 18.1----30.14- 48.2 48.2----
2024-04-17 03:00 pm S 17.1 18.1----30.15-0.04 48.4 48.0----
2024-04-17 02:54 pm S 15.9 17.1----30.15- 48.7 48.0----
2024-04-17 02:48 pmSSE 15.0 17.1----30.15- 48.7 47.8----
2024-04-17 02:42 pmSSE 15.0 18.1----30.16- 48.7 47.7----
2024-04-17 02:36 pmSSE 17.1 19.0----30.15- 48.6 47.5----
2024-04-17 02:30 pm S 18.1 19.0----30.16- 48.6 47.5----
2024-04-17 02:24 pm S 18.1 18.1----30.16- 48.7 47.5----
2024-04-17 02:18 pm S 17.1 19.0----30.16- 48.9 47.5----
2024-04-17 02:12 pm S 17.1 18.1----30.16- 48.9 47.7----
2024-04-17 02:06 pm S 17.1 18.1----30.16- 48.7 47.7----
2024-04-17 02:00 pm S 18.1 19.0----30.17-0.04 48.6 47.8----
2024-04-17 01:54 pmSSE 17.1 18.1----30.16- 48.7 47.8----
2024-04-17 01:48 pm S 17.1 18.1----30.17- 48.9 48.0----
2024-04-17 01:42 pm S 15.9 17.1----30.17- 49.1 48.2----
2024-04-17 01:36 pm S 15.9 17.1----30.17- 49.3 48.2----
2024-04-17 01:30 pm S 15.0 15.9----30.17- 49.3 48.4----
2024-04-17 01:24 pm S 14.0 15.9----30.17- 49.3 48.4----
2024-04-17 01:18 pm S 15.0 15.9----30.17- 49.1 48.6----
2024-04-17 01:12 pm S 15.0 15.9----30.18- 49.5 48.7----
2024-04-17 01:06 pm S 14.0 15.9----30.18- 49.5 48.7----
2024-04-17 01:00 pm S 15.0 17.1----30.18-0.05 49.5 48.9----
2024-04-17 12:54 pm S 17.1 18.1----30.18- 49.5 48.9----
2024-04-17 12:48 pm S 15.9 17.1----30.19- 49.5 49.1----
2024-04-17 12:42 pm S 15.0 15.9----30.18- 49.5 49.3----
2024-04-17 12:36 pm S 15.0 15.9----30.19- 49.5 49.3----
2024-04-17 12:30 pm S 14.0 15.0----30.19- 49.5 49.5----
2024-04-17 12:24 pm S 13.0 14.0----30.19- 49.6 49.5----
2024-04-17 12:18 pm S 12.0 13.0----30.19- 49.8 49.6----
2024-04-17 12:12 pm S 9.9 12.0----30.19- 50.0 49.6----
2024-04-17 12:06 pm S 11.1 12.0----30.19- 49.8 49.8----
2024-04-17 12:00 pm S 11.1 12.0----30.19-0.05 50.0 50.0----
2024-04-17 11:54 am S 7.0 8.0----30.19- 50.4 50.0----
2024-04-17 11:48 am S 6.0 7.0----30.20- 50.2 50.2----
2024-04-17 11:42 am S 6.0 7.0----30.20- 50.2 50.2----
2024-04-17 11:36 am S 6.0 7.0----30.20- 50.2 50.2----
2024-04-17 11:30 am S 6.0 7.0----30.20- 50.0 50.0----
2024-04-17 11:24 am S 5.1 6.0----30.20- 49.8 50.0----
2024-04-17 11:18 am S 7.0 8.0----30.20- 49.5 50.0----
2024-04-17 11:12 am S 7.0 8.0----30.20- 49.5 50.0----
2024-04-17 11:06 am S 7.0 8.0----30.21- 49.3 50.0----
2024-04-17 11:00 am S 7.0 8.0----30.21-0.02 48.9 50.0----
2024-04-17 10:54 am S 7.0 7.0----30.22- 48.7 50.2----
2024-04-17 10:48 am S 6.0 7.0----30.22- 48.6 50.4----
2024-04-17 10:42 am S 6.0 7.0----30.22- 48.4 50.4----
2024-04-17 10:36 am S 5.1 6.0----30.21- 48.4 50.5----
2024-04-17 10:30 am S 4.1 5.1----30.22- 48.4 50.5----
2024-04-17 10:24 am S 5.1 5.1----30.22- 48.0 50.5----
2024-04-17 10:18 am S 5.1 5.1----30.22- 47.8 50.7----
2024-04-17 10:12 am S 4.1 5.1----30.22- 47.7 50.5----
2024-04-17 10:06 am S 2.9 4.1----30.22- 47.7 50.4----
2024-04-17 10:00 am S 2.9 2.9----30.23+0.00 47.7 50.4----
2024-04-17 09:54 am S 2.9 4.1----30.23- 47.5 50.5----
2024-04-17 09:48 amSSW 2.9 5.1----30.23- 47.5 50.7----
2024-04-17 09:42 am S 4.1 5.1----30.23- 47.5 50.7----
2024-04-17 09:36 amSSE 2.9 5.1----30.23- 47.3 50.5----
2024-04-17 09:30 amSSE 2.9 5.1----30.23- 47.1 50.5----
2024-04-17 09:24 am SE 2.9 4.1----30.23- 47.1 50.4----
2024-04-17 09:18 am E 1.9 2.9----30.23- 47.5 50.4----
2024-04-17 09:12 am E 1.9 4.1----30.24- 48.2 50.2----
2024-04-17 09:06 amENE 2.9 5.1----30.24- 47.8 50.2----
2024-04-17 09:00 am NE 4.1 6.0----30.24+0.01 48.4 50.4----
2024-04-17 08:54 amENE 4.1 6.0----30.24- 48.2 50.5----
2024-04-17 08:48 am NE 6.0 8.9----30.24- 47.8 50.7----
2024-04-17 08:42 amNNE 7.0 8.9----30.24- 47.7 50.7----
2024-04-17 08:36 am NE 6.0 8.0----30.24- 47.5 50.7----
2024-04-17 08:30 am NE 7.0 9.9------- 50.7----
2024-04-17 08:24 am NE 7.0 9.9------- 50.7----
2024-04-17 08:18 amNNE 8.9 12.0----30.24- 46.6 50.7----
2024-04-17 08:12 amNNE 11.1 13.0----30.23- 46.4 50.9----
2024-04-17 08:06 amNNE 11.1 12.0----30.23- 46.4 51.1----
2024-04-17 08:00 am NE 9.9 14.0----30.23+0.02 46.2 50.9----
2024-04-17 07:54 amNNE 11.1 14.0----30.23- 46.4 50.9----
2024-04-17 07:48 am NE 12.0 14.0----30.23- 46.4 50.9----
2024-04-17 07:42 amNNE 8.9 14.0----30.23- 46.2 50.9----
2024-04-17 07:36 amNNE 11.1 13.0----30.23- 46.2 50.9----
2024-04-17 07:30 amNNE 11.1 12.0----30.23- 45.9 51.1----
2024-04-17 07:24 amNNE 9.9 13.0----30.23- 45.9 51.3----
2024-04-17 07:18 amNNE 9.9 14.0----30.23- 45.7 51.4----
2024-04-17 07:12 am N 8.9 12.0----30.23- 45.7 51.4----
2024-04-17 07:06 amNNE 8.0 13.0----30.23- 45.9 51.4----
2024-04-17 07:00 amNNE 12.0 14.0----30.23+0.05 45.5 51.3----
2024-04-17 06:54 amNNE 11.1 14.0----30.23- 45.5 51.3----
2024-04-17 06:48 amNNE 8.9 11.1----30.23- 45.5 51.3----
2024-04-17 06:42 amNNE 8.9 11.1----30.23- 45.9 51.1----
2024-04-17 06:36 amNNE 8.0 9.9----30.23- 45.7 51.3----
2024-04-17 06:30 am N 5.1 6.0----30.23- 45.7 51.3----
2024-04-17 06:24 am N 6.0 7.0----30.23- 45.5 51.1----
2024-04-17 06:18 amNNE 8.0 11.1----30.23- 45.7 51.1----
2024-04-17 06:12 amNNE 8.0 9.9----30.23- 45.9 50.9----
2024-04-17 06:06 amNNE 7.0 8.0----30.23- 45.9 50.7----
2024-04-17 06:00 amNNE 8.0 12.0----30.23+0.06 45.9 50.7----
2024-04-17 05:54 amNNE 5.1 6.0----30.23- 46.0 50.7----
2024-04-17 05:48 am N 2.9 4.1----30.22- 46.0 50.9----
2024-04-17 05:42 amNNE 4.1 6.0----30.22- 46.2 50.9----
2024-04-17 05:36 amNNE 5.1 7.0----30.22- 46.2 50.7----
2024-04-17 05:30 amNNE 7.0 8.0----30.22- 46.4 50.4----
2024-04-17 05:24 am N 8.0 9.9----30.21- 46.6 49.6----
2024-04-17 05:18 am N 8.0 8.9----30.21- 46.8 49.3----
2024-04-17 05:12 am N 6.0 8.9----30.21- 46.8 48.9----
2024-04-17 05:06 am N 5.1 6.0----30.21- 46.9 48.6----
2024-04-17 05:00 amNNE 6.0 8.9----30.21+0.04 47.1 48.2----
2024-04-17 04:54 am N 5.1 7.0----30.21- 47.1 47.8----
2024-04-17 04:48 am N 7.0 8.0----30.21- 47.3 47.7----
2024-04-17 04:42 am N 7.0 9.9----30.20- 47.3 47.5----
2024-04-17 04:36 amNNE 8.0 12.0----30.19- 47.5 47.5----
2024-04-17 04:30 amNNE 9.9 12.0----30.19- 47.7 47.7----
2024-04-17 04:24 amNNE 8.9 13.0----30.19- 47.8 47.7----
2024-04-17 04:18 amNNE 11.1 14.0----30.18- 48.0 47.8----
2024-04-17 04:12 amNNE 8.0 12.0----30.18- 48.2 48.2----
2024-04-17 04:06 am N 8.9 9.9----30.18- 48.2 48.4----
2024-04-17 04:00 amNNE 8.0 11.1----30.18+0.03 48.6 48.4----
2024-04-17 03:54 amNNE 6.0 8.9----30.18- 48.6 48.2----
2024-04-17 03:48 am N 7.0 9.9----30.18- 48.9 48.2----
2024-04-17 03:42 amNNE 8.9 12.0----30.17- 49.1 48.4----
2024-04-17 03:36 amNNE 9.9 12.0----30.17- 49.3 48.4----
2024-04-17 03:30 amNNE 11.1 15.0----30.17- 49.5 48.6----
2024-04-17 03:24 amNNE 9.9 13.0----30.17- 49.8 48.9----
2024-04-17 03:18 amNNE 7.0 8.9----30.17- 50.0 48.9----
2024-04-17 03:12 amNNE 8.9 11.1----30.17- 50.4 49.1----
2024-04-17 03:06 amNNE 7.0 8.9----30.17- 50.5 49.6----
2024-04-17 03:00 amNNE 8.0 12.0----30.17+0.03 50.7 50.0----
2024-04-17 02:54 am N 9.9 15.9----30.17- 51.1 50.4----
2024-04-17 02:48 am N 8.9 15.0----30.16- 51.4 50.5----
2024-04-17 02:42 am N 8.0 8.9----30.16- 51.6 50.5----
2024-04-17 02:36 am N 6.0 9.9----30.16- 51.8 50.5----
2024-04-17 02:30 am N 8.0 9.9----30.16- 52.2 50.7----
2024-04-17 02:24 am N 7.0 9.9----30.16- 52.3 50.5----
2024-04-17 02:18 am N 8.0 11.1----30.16- 52.5 50.5----
2024-04-17 02:12 amNNW 8.0 11.1----30.16- 52.7 52.2----
2024-04-17 02:06 am N 8.0 11.1----30.16- 52.7 52.2----
2024-04-17 02:00 am N 8.9 12.0----30.16+0.04 53.1 52.2----
2024-04-17 01:54 am N 8.9 12.0----30.16- 53.2 51.8----
2024-04-17 01:48 am N 9.9 15.9----30.16- 53.4 51.3----
2024-04-17 01:42 am N 9.9 13.0----30.16- 53.4 50.9----
2024-04-17 01:36 am N 12.0 15.9----30.16- 53.8 50.0----
2024-04-17 01:30 am N 13.0 17.1----30.16- 53.8 49.5----
2024-04-17 01:24 am N 12.0 15.9----30.16- 54.0 48.9----
2024-04-17 01:18 am N 12.0 14.0----30.16- 54.1 48.7----
2024-04-17 01:12 amNNW 12.0 15.0----30.16- 54.3 48.7----
2024-04-17 01:06 amNNW 14.0 15.9----30.15- 54.7 48.6----
2024-04-17 01:00 amNNW 13.0 18.1----30.15+0.04 55.0 48.7----
2024-04-17 12:54 amNNW 12.0 17.1----30.15- 55.4 48.7----
2024-04-17 12:48 amNNW 12.0 15.0----30.15- 55.4 49.1----
2024-04-17 12:42 am NW 13.0 15.9----30.15- 55.4 49.5----
2024-04-17 12:36 am NW 11.1 14.0----30.15- 55.2 49.6----
2024-04-17 12:30 amWNW 8.0 8.9----30.14- 56.1 49.8----
2024-04-17 12:24 amWNW 6.0 7.0----30.14- 55.8 50.0----
2024-04-17 12:18 amWNW 6.0 6.0----30.14- 55.8 50.2----
2024-04-17 12:12 amWNW 4.1 5.1----30.14- 55.2 50.2----
2024-04-17 12:06 am W 4.1 5.1----30.14- 55.6 50.2----
2024-04-17 12:00 amWNW 2.9 5.1----30.14+0.04 54.9 50.4----
2024-04-16 11:54 pm W 1.0 1.9----30.15- 54.7 50.5----
2024-04-16 11:48 pmWSW 1.9 2.9----30.14- 54.7 50.5----
2024-04-16 11:42 pm SW 1.9 2.9----30.14- 55.2 50.7----
2024-04-16 11:36 pm SW 1.0 1.9----30.14- 55.9 50.9----
2024-04-16 11:30 pm W 1.9 4.1----30.14- 55.6 51.1----
2024-04-16 11:24 pmWNW 2.9 5.1----30.14- 56.3 51.4----
2024-04-16 11:18 pmWNW 5.1 5.1----30.13- 57.0 51.4----
2024-04-16 11:12 pm NW 5.1 6.0----30.13- 57.4 51.6----
2024-04-16 11:06 pmWNW 5.1 7.0----30.13- 57.6 51.6----
2024-04-16 11:00 pmWNW 6.0 7.0----30.13+0.04 57.6 51.8----
2024-04-16 10:54 pmWNW 7.0 8.0----30.12- 56.8 51.8----
2024-04-16 10:48 pmWNW 7.0 8.0----30.12- 56.3 51.6----
2024-04-16 10:42 pm NW 6.0 7.0----30.12- 56.3 51.6----
2024-04-16 10:36 pm NW 5.1 6.0----30.12- 55.6 51.6----
2024-04-16 10:30 pmWNW 7.0 8.9----30.12- 55.2 51.6----
2024-04-16 10:24 pmWNW 8.9 9.9----30.12- 55.9 51.4----
2024-04-16 10:18 pmWNW 8.9 8.9----30.11- 55.4 51.3----
2024-04-16 10:12 pmWNW 7.0 8.0----30.11- 55.6 50.9----
2024-04-16 10:06 pm W 7.0 9.9----30.11- 55.9 50.5----
2024-04-16 10:00 pm W 8.9 9.9----30.11+0.05 58.5 50.4----
2024-04-16 09:54 pm W 8.9 9.9----30.11- 59.5 50.2----
2024-04-16 09:48 pm W 9.9 9.9----30.11- 59.9 50.2----
2024-04-16 09:42 pmWNW 9.9 9.9----30.11- 60.4 50.2----
2024-04-16 09:36 pm W 8.9 9.9----30.11- 60.4 50.2----
2024-04-16 09:30 pm W 8.9 8.9----30.11- 60.6 50.2----
2024-04-16 09:24 pm W 8.9 8.9----30.11- 60.6 50.4----
2024-04-16 09:18 pm W 8.9 9.9----30.11- 60.3 51.1----
2024-04-16 09:12 pm W 8.9 9.9----30.11- 60.1 52.2----
2024-04-16 09:06 pm W 9.9 11.1----30.10- 59.7 53.2----
2024-04-16 09:00 pm W 8.9 11.1----30.10+0.06 60.3 53.8----
2024-04-16 08:54 pm W 9.9 11.1----30.10- 61.0 53.8----
2024-04-16 08:48 pm W 9.9 9.9----30.10- 61.0 54.0----
2024-04-16 08:42 pmWNW 8.9 13.0----30.10- 60.4 54.0----
2024-04-16 08:36 pmWNW 11.1 13.0----30.09- 61.5 54.0----
2024-04-16 08:30 pmWNW 9.9 11.1----30.09- 61.3 54.0----
2024-04-16 08:24 pm W 9.9 11.1----30.09- 61.7 54.0----
2024-04-16 08:18 pm W 9.9 11.1----30.09- 61.9 54.1----
2024-04-16 08:12 pm W 9.9 11.1----30.08- 61.7 54.1----
2024-04-16 08:06 pm W 8.9 11.1----30.08- 61.7 54.1----
2024-04-16 08:00 pm W 9.9 14.0----30.08+0.04 61.7 54.3----
2024-04-16 07:54 pmWNW 11.1 13.0----30.08- 61.3 54.3----
2024-04-16 07:48 pm W 11.1 14.0----30.07- 62.2 54.3----
2024-04-16 07:42 pmWNW 13.0 15.0----30.07- 62.2 54.3----
2024-04-16 07:36 pmWNW 12.0 13.0----30.07- 62.1 54.5----
2024-04-16 07:30 pm W 9.9 11.1----30.07- 62.4 54.5----
2024-04-16 07:24 pm W 11.1 15.9----30.06- 62.1 54.7----
2024-04-16 07:00 pm W 15.0 17.1----30.06+0.02 64.4-----
2024-04-16 06:54 pm W 15.0 17.1----30.05- 63.7-----